Tina-c — 2APY2 — position and weather

sailwx.info

Track history (hours):
 
Tides and Currents Weather Stations Pressure Air Temp Water Temp Dewpoint Dewpoint Depression Visibility Wind Speed Wind Dir Waves Ship Positions

Tina-c

Last reported at 2014-Jul-28 22:32 UTC. Time now 2014-Jul-28 22:36 UTC.
Position N 31°38' E 031°45'.

Length 99 m; draft 4 m.

Type: Cargo ship. MMSI: 235061987.

Date/timePositionNaut miles runAvg speedWind from/ knotsBaromVisibWave heightAir tempDewpointWater temp
2014-Jul-28 22:32N 31°38' E 031°45'0 0.0
2014-Jul-28 21:23N 31°38' E 031°45'0 0.0
2014-Jul-28 20:26N 31°38' E 031°45'0 0.0
2014-Jul-28 19:29N 31°38' E 031°45'0 0.0
2014-Jul-28 18:32N 31°38' E 031°45'0 0.0
2014-Jul-28 17:32N 31°38' E 031°45'0 0.0
2014-Jul-28 16:11N 31°38' E 031°45'0 0.0
2014-Jul-28 15:32N 31°38' E 031°45'0 0.0
2014-Jul-28 14:05N 31°38' E 031°45'0 0.0
2014-Jul-28 13:29N 31°38' E 031°45'0 0.0
2014-Jul-28 12:32N 31°38' E 031°45'  
2014-Jul-25 00:09N 36°17' E 015°12'711.8
2014-Jul-24 23:34N 36°20' E 015°04'1811.7
2014-Jul-24 22:04N 36°25' E 014°43'711.6
2014-Jul-24 21:27N 36°27' E 014°35'1011.5
2014-Jul-24 20:33N 36°34' E 014°24'1111.3
2014-Jul-24 19:33N 36°41' E 014°14'1111.4
2014-Jul-24 18:33N 36°49' E 014°03'1010.2
2014-Jul-24 17:33N 36°55' E 013°53'10 9.5
2014-Jul-24 16:33N 37°01' E 013°44'  
2014-Jul-20 07:16N 39°40' E 005°37'810.5
2014-Jul-20 06:30N 39°44' E 005°27'1110.5
2014-Jul-20 05:25N 39°48' E 005°13'7 6.8
2014-Jul-20 04:21N 39°51' E 005°05'11 8.9
2014-Jul-20 03:04N 39°56' E 004°51'5 8.8
2014-Jul-20 02:31N 39°58' E 004°46'1010.0
2014-Jul-20 01:29N 40°02' E 004°33'9 9.7
2014-Jul-20 00:31N 40°06' E 004°22'8 7.8
2014-Jul-19 23:25N 40°09' E 004°12'8 9.4
2014-Jul-19 22:33N 40°12' E 004°02'12 9.3
2014-Jul-19 21:13N 40°17' E 003°47'17 9.1
2014-Jul-19 19:24N 40°23' E 003°27'7 8.7
2014-Jul-19 18:33N 40°26' E 003°18'9 8.9
2014-Jul-19 17:33N 40°29' E 003°07'10 9.5
2014-Jul-19 16:33N 40°33' E 002°55'10 9.6
2014-Jul-19 15:33N 40°36' E 002°43'9 9.5
2014-Jul-19 14:33N 40°40' E 002°32'9 9.3
2014-Jul-19 13:33N 40°43' E 002°20'9 9.4
2014-Jul-19 12:33N 40°47' E 002°09'9 9.2
2014-Jul-19 11:33N 40°50' E 001°57'9 9.3
2014-Jul-19 10:33N 40°53' E 001°46'9 9.1
2014-Jul-19 09:33N 40°57' E 001°35'9 9.1
2014-Jul-19 08:33N 41°00' E 001°24'9 8.5
2014-Jul-19 07:26N 41°04' E 001°12'2 0.8
2014-Jul-19 05:16N 41°06' E 001°14'  
Track history (hours):
 
Tides and Currents Weather Stations Pressure Air Temp Water Temp Dewpoint Dewpoint Depression Visibility Wind Speed Wind Dir Waves Ship Positions

Tina-c

Last reported at 2014-Jul-28 22:32 UTC. Time now 2014-Jul-28 22:36 UTC.
Position N 31°38' E 031°45'.

Length 99 m; draft 4 m.

Type: Cargo ship. MMSI: 235061987.

Date/timePositionNaut miles runAvg speedWind from/ knotsBaromVisibWave heightAir tempDewpointWater temp
2014-Jul-28 22:32N 31°38' E 031°45'0 0.0
2014-Jul-28 21:23N 31°38' E 031°45'0 0.0
2014-Jul-28 20:26N 31°38' E 031°45'0 0.0
2014-Jul-28 19:29N 31°38' E 031°45'0 0.0
2014-Jul-28 18:32N 31°38' E 031°45'0 0.0
2014-Jul-28 17:32N 31°38' E 031°45'0 0.0
2014-Jul-28 16:11N 31°38' E 031°45'0 0.0
2014-Jul-28 15:32N 31°38' E 031°45'0 0.0
2014-Jul-28 14:05N 31°38' E 031°45'0 0.0
2014-Jul-28 13:29N 31°38' E 031°45'0 0.0
2014-Jul-28 12:32N 31°38' E 031°45'  
2014-Jul-25 00:09N 36°17' E 015°12'711.8
2014-Jul-24 23:34N 36°20' E 015°04'1811.7
2014-Jul-24 22:04N 36°25' E 014°43'711.6
2014-Jul-24 21:27N 36°27' E 014°35'1011.5
2014-Jul-24 20:33N 36°34' E 014°24'1111.3
2014-Jul-24 19:33N 36°41' E 014°14'1111.4
2014-Jul-24 18:33N 36°49' E 014°03'1010.2
2014-Jul-24 17:33N 36°55' E 013°53'10 9.5
2014-Jul-24 16:33N 37°01' E 013°44'  
2014-Jul-20 07:16N 39°40' E 005°37'810.5
2014-Jul-20 06:30N 39°44' E 005°27'1110.5
2014-Jul-20 05:25N 39°48' E 005°13'7 6.8
2014-Jul-20 04:21N 39°51' E 005°05'11 8.9
2014-Jul-20 03:04N 39°56' E 004°51'5 8.8
2014-Jul-20 02:31N 39°58' E 004°46'1010.0
2014-Jul-20 01:29N 40°02' E 004°33'9 9.7
2014-Jul-20 00:31N 40°06' E 004°22'8 7.8
2014-Jul-19 23:25N 40°09' E 004°12'8 9.4
2014-Jul-19 22:33N 40°12' E 004°02'12 9.3
2014-Jul-19 21:13N 40°17' E 003°47'17 9.1
2014-Jul-19 19:24N 40°23' E 003°27'7 8.7
2014-Jul-19 18:33N 40°26' E 003°18'9 8.9
2014-Jul-19 17:33N 40°29' E 003°07'10 9.5
2014-Jul-19 16:33N 40°33' E 002°55'10 9.6
2014-Jul-19 15:33N 40°36' E 002°43'9 9.5
2014-Jul-19 14:33N 40°40' E 002°32'9 9.3
2014-Jul-19 13:33N 40°43' E 002°20'9 9.4
2014-Jul-19 12:33N 40°47' E 002°09'9 9.2
2014-Jul-19 11:33N 40°50' E 001°57'9 9.3
2014-Jul-19 10:33N 40°53' E 001°46'9 9.1
2014-Jul-19 09:33N 40°57' E 001°35'9 9.1
2014-Jul-19 08:33N 41°00' E 001°24'9 8.5
2014-Jul-19 07:26N 41°04' E 001°12'2 0.8
2014-Jul-19 05:16N 41°06' E 001°14'  

Dump ship's entire track history